DateTimeUTC,F1_A11,F1_S11,BsB_S11,BsG_S11,BsR_S11,BbsB_S11,BbsG_S11,BbsR_S11,BaB_A11,BaG_A11,BaR_A11,Tu_S11,T_S11,Uu_S11,U_S11,P_S11,T1_A11
2021-11-28T06:00:00Z,00000200,21000000,,,,,,,0000.02,0000.01,0000.02,18.5,25.6,,00.0,0632.0,30.8
2021-11-28T06:01:00Z,00000200,21000000,,,,,,,0000.18,0000.25,0000.05,18.5,25.6,,00.0,0632.0,30.8
2021-11-28T06:02:00Z,00000200,21000000,,,,,,,-000.16,-000.12,0000.10,18.5,25.6,,00.0,0632.0,30.9
2021-11-28T06:03:00Z,00000200,61000000,,,,,,,0000.42,0000.06,-000.12,18.5,25.6,,00.0,0632.0,30.9
2021-11-28T06:04:00Z,00000200,41000000,0000.48,0000.53,0000.11,0000.06,0000.06,0000.08,0000.38,0000.15,0000.24,18.8,25.5,,00.0,0632.7,30.9
2021-11-28T06:05:00Z,00000200,01000000,-000.17,0000.39,0000.60,0000.56,-000.04,0000.28,-000.14,0000.19,0000.30,18.9,25.5,,00.0,0632.8,30.9
2021-11-28T06:06:00Z,00000200,01000000,0001.02,0000.64,0000.59,0000.71,-000.16,0000.13,0000.29,0000.11,0000.33,19.0,25.5,,00.0,0632.8,30.9
2021-11-28T06:07:00Z,00000200,01000000,0001.13,0000.40,0000.29,0000.47,-000.02,0000.58,0000.28,0000.05,-000.13,19.0,25.5,,00.0,0632.7,30.9
2021-11-28T06:08:00Z,00000200,01000000,0000.95,0000.17,0000.25,0000.19,-000.19,0000.23,-000.31,0000.35,0000.15,19.0,25.5,,00.0,0632.7,30.9
2021-11-28T06:09:00Z,00000200,01000000,-000.43,0000.45,0000.27,0000.51,-000.12,0000.36,0000.32,-000.14,-000.16,19.1,25.6,,00.0,0632.7,30.9
2021-11-28T06:10:00Z,00000200,01000000,0000.79,0000.07,-000.08,0000.73,-000.05,0000.37,-000.04,0000.18,0000.09,19.0,25.5,,00.0,0632.6,30.9
2021-11-28T06:11:00Z,00000200,01000000,0000.61,0000.49,-000.06,0000.61,0000.03,0000.31,0000.25,0000.10,0000.49,19.0,25.5,,00.0,0632.6,30.8
2021-11-28T06:12:00Z,00000200,01000000,0000.31,0000.33,0000.06,0000.05,0000.44,0000.25,0000.36,0000.03,0000.13,18.9,25.5,,00.0,0632.6,30.8
2021-11-28T06:13:00Z,00000200,01000000,0000.42,0000.38,0000.29,0000.11,0000.01,0000.05,0000.19,0000.50,-000.24,18.9,25.5,,00.0,0632.6,30.9
2021-11-28T06:14:00Z,00000200,01000000,0000.91,0000.96,0000.19,0000.91,0000.20,0000.34,0000.36,0000.27,0000.29,18.9,25.5,,00.0,0632.6,30.9
2021-11-28T06:15:00Z,00000200,01000000,0000.21,0000.29,0000.32,0000.22,0000.20,0000.37,-000.16,-000.14,0000.11,19.0,25.5,,00.0,0632.5,30.9
2021-11-28T06:16:00Z,00000200,01000000,0000.09,0000.36,0000.21,-000.29,0000.11,0000.19,0000.32,0000.32,0000.09,19.0,25.5,,00.0,0632.6,30.9
2021-11-28T06:17:00Z,00000200,01000000,0000.46,0000.27,0000.11,0000.21,0000.13,-000.27,0000.04,-000.05,0000.17,19.1,25.5,,00.0,0632.6,30.9
2021-11-28T06:18:00Z,00000200,01000000,0000.21,0000.31,0000.01,0000.41,0000.17,0000.15,-000.24,-000.17,0000.02,19.1,25.5,,00.0,0632.6,30.9
2021-11-28T06:19:00Z,00000200,01000000,0000.07,0000.19,0000.13,0000.83,0000.19,0000.12,0000.24,0000.26,-000.37,19.1,25.6,,00.0,0632.6,30.9
2021-11-28T06:20:00Z,00000200,01000000,0000.14,0000.12,0000.46,0000.55,-000.14,0000.11,0000.24,0000.10,0000.33,19.1,25.6,,00.0,0632.6,30.9
2021-11-28T06:21:00Z,00000200,01000000,0000.20,0000.25,0000.11,0000.41,0000.37,0000.14,-000.02,-000.05,-000.01,19.2,25.6,,00.0,0632.6,30.9
2021-11-28T06:22:00Z,00000200,01000000,0000.57,0000.47,-000.08,0000.47,-000.02,0000.16,0000.00,-000.15,-000.13,19.2,25.6,,00.0,0632.6,30.9
2021-11-28T06:23:00Z,00000200,01000000,0000.88,-000.08,0000.31,0000.46,-000.08,0000.21,-000.06,0000.31,-000.07,19.1,25.6,,00.0,0632.5,30.9
2021-11-28T06:24:00Z,00000200,01000000,0000.27,0000.30,0000.20,0001.20,-000.36,0000.27,0000.16,-000.24,0000.12,19.0,25.5,,00.0,0632.5,30.9
2021-11-28T06:25:00Z,00000200,01000000,0000.46,0000.01,0000.40,0000.48,0000.08,0000.35,-000.03,-000.01,0000.08,18.9,25.5,,00.0,0632.5,30.8
2021-11-28T06:26:00Z,00000200,01000000,-000.15,0000.54,0000.32,0000.11,-000.05,0000.63,0000.33,-000.03,0000.28,18.8,25.4,,00.0,0632.5,30.8
2021-11-28T06:27:00Z,00000200,01000000,0000.54,0000.18,0000.33,0000.27,0000.60,0000.45,-000.04,0000.68,0000.04,18.8,25.4,,00.0,0632.5,30.8
2021-11-28T06:28:00Z,00000200,01000000,0000.06,0000.37,0000.24,-000.08,0000.22,0000.00,0000.46,-000.16,-000.12,18.8,25.4,,00.0,0632.5,30.8
2021-11-28T06:29:00Z,00000200,01000000,0000.48,0000.28,0000.26,0000.36,0000.06,0000.49,0000.23,0000.38,0000.60,18.8,25.4,,00.0,0632.5,30.9
2021-11-28T06:30:00Z,00000200,01000000,0000.73,0000.25,0000.45,0000.84,0000.10,0000.40,-000.12,0000.33,-000.14,18.8,25.4,,00.0,0632.4,30.8
2021-11-28T06:31:00Z,00000200,01000000,0000.19,-000.03,0000.34,0000.47,0000.43,0000.46,0000.64,0000.14,0000.23,18.9,25.4,,00.0,0632.4,30.8
2021-11-28T06:32:00Z,00000200,01000000,0000.16,0000.72,0000.56,0001.03,-000.28,0000.45,0000.08,-000.21,-000.12,18.9,25.4,,00.0,0632.4,30.9
2021-11-28T06:33:00Z,00000200,01000000,0000.06,0000.47,-000.16,0000.66,0000.07,0000.08,-000.03,0000.42,0000.33,18.9,25.5,,00.0,0632.4,30.9
2021-11-28T06:34:00Z,00000200,01000000,0000.48,0000.22,-000.03,0000.19,0000.01,0000.01,-000.06,-000.06,-000.13,19.0,25.5,,00.0,0632.5,30.9
2021-11-28T06:35:00Z,00000200,01000000,0000.99,0000.43,-000.09,0000.62,0000.34,-000.12,0000.45,0000.36,0000.51,19.0,25.5,,00.0,0632.5,30.9
2021-11-28T06:36:00Z,00000200,01000000,0000.02,0000.40,0000.05,0000.59,-000.09,0000.09,0000.07,0000.26,-000.21,19.1,25.5,,00.0,0632.5,30.9
2021-11-28T06:37:00Z,00000200,01000000,0000.84,0000.29,0000.48,0000.54,-000.02,0000.05,0000.29,0000.15,0000.24,19.1,25.5,,00.0,0632.4,30.9
2021-11-28T06:38:00Z,00000200,01000000,0000.17,0000.70,0000.31,0000.06,0000.27,0000.04,0000.00,-000.31,0000.25,19.1,25.6,,00.0,0632.4,30.9
2021-11-28T06:39:00Z,00000200,01000000,0000.72,0000.53,0000.28,-000.17,0000.26,0000.56,0000.14,0000.44,0000.12,19.2,25.6,,00.0,0632.4,30.9
2021-11-28T06:40:00Z,00000200,01000000,0000.36,0000.51,0000.28,0000.53,0000.13,0000.33,0000.45,0000.08,-000.05,19.2,25.6,,00.0,0632.4,30.9
2021-11-28T06:41:00Z,00000200,01000000,0000.93,0000.24,-000.11,0000.14,0000.05,0000.11,-000.29,-000.02,-000.04,19.2,25.6,,00.0,0632.4,30.9
2021-11-28T06:42:00Z,00000200,01000000,-000.04,-000.03,0000.24,0000.45,0000.08,0000.43,0000.45,0000.56,0000.13,19.2,25.6,,00.0,0632.4,30.9
2021-11-28T06:43:00Z,00000200,01000000,0000.15,0000.13,0000.30,0000.84,0000.01,0000.28,0000.01,-000.19,0000.36,19.2,25.6,,00.0,0632.4,30.9
2021-11-28T06:44:00Z,00000200,01000000,0000.81,0000.10,0000.16,0000.34,-000.20,0000.47,0000.51,0000.45,0000.24,19.2,25.6,,00.0,0632.3,30.9
2021-11-28T06:45:00Z,00000200,01000000,0000.61,0000.38,0000.02,0000.78,0000.15,-000.08,0000.19,0000.05,-000.21,19.2,25.6,,00.0,0632.3,30.9
2021-11-28T06:46:00Z,00000200,01000000,0000.85,0000.17,0000.15,0000.22,0000.02,0000.26,0000.08,-000.05,-000.05,19.2,25.6,,00.0,0632.3,30.9
2021-11-28T06:47:00Z,00000200,01000000,0000.82,0000.34,-000.23,0000.60,-000.27,0000.35,-000.25,-000.15,-000.22,19.3,25.6,,00.0,0632.3,30.9
2021-11-28T06:48:00Z,00000200,01000000,0000.44,0000.30,0000.10,0000.69,0000.28,0000.40,-000.06,0000.19,0000.40,19.3,25.7,,00.0,0632.3,30.9
2021-11-28T06:49:00Z,00000200,01000000,-000.05,0000.24,-000.01,0000.53,0000.12,0000.19,0000.33,0000.14,0000.03,19.4,25.7,,00.0,0632.3,30.9
2021-11-28T06:50:00Z,00000200,01000000,0000.50,0000.30,-000.07,0000.26,0000.01,0000.43,0000.31,0000.29,0000.24,19.4,25.7,,00.0,0632.3,30.9
2021-11-28T06:51:00Z,00000200,01000000,0001.25,0000.61,0000.18,0000.81,0000.25,0000.23,0000.01,0000.21,-000.03,19.4,25.7,,00.0,0632.2,30.9
2021-11-28T06:52:00Z,00000200,01000000,0000.33,0000.55,0000.06,0000.32,-000.11,0000.30,0000.10,-000.27,0000.08,19.4,25.8,,00.0,0632.2,30.9
2021-11-28T06:53:00Z,00000200,01000000,0000.34,0000.45,-000.03,0000.90,0000.00,0000.43,-000.17,0000.24,-000.06,19.4,25.8,,00.0,0632.2,30.9
2021-11-28T06:54:00Z,00000200,01000000,0000.62,0000.53,0000.21,0000.33,0000.05,0000.31,0000.42,-000.05,-000.29,19.4,25.8,,00.0,0632.2,30.9
2021-11-28T06:55:00Z,00000200,01000000,0000.62,0000.40,0000.31,0000.83,0000.10,0000.16,0000.13,0000.10,0000.34,19.3,25.7,,00.0,0632.2,30.9
2021-11-28T06:56:00Z,00000200,01000000,0000.18,0000.33,0000.54,-000.09,0000.18,0000.28,-000.23,0000.21,0000.07,19.2,25.7,,00.0,0632.1,30.9
2021-11-28T06:57:00Z,00000200,41000000,,,,,,,0000.31,-000.07,0000.47,19.2,25.7,,00.0,0632.2,30.8
2021-11-28T06:58:00Z,00000200,61000000,,,,,,,-000.09,0000.09,-000.43,18.7,25.7,,00.0,0631.2,30.8
2021-11-28T06:59:00Z,00000200,21000000,,,,,,,-000.09,-000.05,-000.03,18.7,25.8,,00.0,0631.2,30.8
